Location: Deinsen
(52.0510°N, 9.7129°E)
Time: 05:50:48
(UTC+00:00)

Daily predictions for brighter satellites

Satellite Brightness Start Highest point End
(mag) Time Altitude Azimuth Time Altitude Azimuth Time Altitude Azimuth
BREEZE-M DEB (TANK) 3.7 00:01:52 25° S 00:02:49 29° SE 00:08:17 10° E
Cosmos 1340 Rocket 3.3 00:02:54 22° SSE 00:05:06 50° E 00:08:57 10° NNE
Cosmos 1980 Rocket 3.7 00:02:39 10° NW 00:06:47 21° W 00:09:35 15° SW
Meteor 2-11 Rocket 4.5 00:02:24 10° N 00:08:36 86° E 00:13:27 17° S
FALCON 9 DEB 2.9 00:05:49 10° WNW 00:09:04 63° SSW 00:12:19 10° ESE
Cosmos 1953 Rocket 3.6 00:12:27 22° S 00:15:16 75° E 00:19:44 10° NNE
USA 276 2.0 00:13:21 10° W 00:16:18 54° S 00:19:15 10° ESE
Cosmos 1934 Rocket 4.0 00:10:18 10° NNW 00:16:21 73° W 00:20:54 19° S
Cosmos 2219 Rocket 3.3 00:11:11 10° NNW 00:16:37 44° NE 00:22:02 10° ESE
Cosmos-2242 4.2 00:15:19 10° NNW 00:19:00 29° W 00:21:15 18° SW
Cosmos 1782 3.9 00:22:08 10° N 00:25:57 40° ENE 00:29:42 10° SE
Cosmos 1825 Rocket 3.9 00:27:01 20° SSW 00:29:48 54° WNW 00:34:04 10° N
Cosmos 1339 Rocket 4.5 00:26:07 19° S 00:30:53 88° W 00:37:06 10° N
CZ-2D R/B 3.1 00:27:40 10° NNE 00:32:31 37° E 00:36:52 12° SSE
Thor Agena Rocket 3.9 00:28:24 10° NNE 00:33:36 60° ESE 00:37:31 17° S
Cosmos 2333 Rocket 2.5 00:27:55 10° NNW 00:33:42 70° NE 00:39:27 10° SE
Cosmos 1633 4.4 00:31:50 12° WSW 00:34:07 20° WNW 00:36:48 10° NNW
MOS 1 Rocket 4.3 00:29:23 10° SE 00:34:12 50° ENE 00:39:17 10° N
SL-27 R/B 4.4 00:35:59 11° SE 00:38:06 18° E 00:40:28 10° NE
Cosmos 2322 Rocket 2.4 00:32:38 10° NW 00:38:08 52° WSW 00:42:36 15° S
Cosmos 1842 Rocket 3.6 00:38:08 10° NNW 00:42:39 81° W 00:46:09 17° S
Cosmos 1076 Rocket 4.1 00:40:03 16° SSE 00:43:22 54° E 00:47:39 10° NNE
SJ 16-02 2.3 00:41:55 10° NW 00:45:53 33° WSW 00:48:22 19° SSW
Resurs 1-4 Rocket 2.7 00:42:12 10° NNE 00:47:24 50° E 00:51:56 13° S
UNK 4.5 00:44:09 10° SE 00:48:42 53° ENE 00:53:15 10° N
Cosmos 2058 4.0 00:48:28 16° SW 00:51:22 36° WNW 00:55:17 10° N
USA 267 3.9 00:45:37 10° ENE 00:52:00 58° N 00:58:23 10° WNW
Cosmos 1605 Rocket 4.2 00:45:56 10° NNW 00:52:16 65° W 00:57:40 15° S
Cosmos 972 Rocket 4.2 00:49:50 10° NNW 00:54:41 53° WSW 00:59:04 14° S
Cosmos 1933 3.3 00:51:02 10° NNW 00:55:03 82° W 00:58:17 15° S
ATLAS 5 CENTAUR R/B 1.7 00:52:15 13° WSW 00:55:35 64° NW 01:00:00 10° NE
CZ-4 R/B 4.4 00:51:03 10° NNE 00:55:46 52° E 00:59:58 13° S
Cosmos 2082 Rocket 3.9 00:56:32 10° W 01:01:22 27° NW 01:06:12 10° NNE
SL-4 R/B 3.6 01:00:23 14° SSE 01:01:53 18° SE 01:04:32 10° E
MOZ.5/SAFIR/RUBIN 5/SL-8 4.3 00:58:40 17° SSW 01:02:07 45° W 01:06:42 10° NNW
Cosmos 2333 4.2 01:00:00 10° NNW 01:05:46 74° WSW 01:11:32 10° SSE
CENTAUR R/B 4.3 01:04:31 10° SSE 01:08:46 21° ESE 01:13:31 10° ENE
SL-24 DEB 4.2 01:05:06 14° S 01:09:04 78° W 01:13:42 10° N
BREEZE-M DEB (TANK) 4.3 01:02:39 10° WNW 01:10:10 31° SW 01:13:15 10° SSE
Cosmos 1833 4.3 01:08:05 15° SSW 01:12:45 73° ESE 01:18:21 10° NNE
COSMOS 2487 3.2 01:11:10 15° S 01:13:24 36° ESE 01:16:17 10° NE
YAOGAN 11 4.4 01:08:55 10° SSE 01:13:28 74° ENE 01:18:01 10° NNW
Cosmos 2221 3.6 01:11:45 10° NNW 01:15:33 30° W 01:18:29 15° SW
Cosmos 1812 2.6 01:12:36 10° NNW 01:16:27 78° W 01:20:00 12° S
Meteor 1-26 Rocket 4.3 01:11:59 10° NNW 01:17:41 69° W 01:23:31 10° S
Helios 1A 3.9 01:13:53 10° SE 01:17:57 50° ENE 01:22:02 10° N
NPP 3.8 01:12:53 10° NNE 01:18:18 73° ESE 01:23:21 12° S
Cosmos 2360 Rocket 2.7 01:13:37 10° NW 01:18:53 40° WSW 01:24:00 11° S
COSMOS 2428 2.9 01:15:48 10° NNW 01:21:33 81° ENE 01:27:17 10° SSE
NOSS 8 (A) 4.4 01:20:19 16° SSW 01:22:47 58° SE 01:25:40 10° NE
Cosmos 1763 Rocket 3.9 01:21:13 12° S 01:25:57 60° ESE 01:31:10 10° NNE
Cosmos 990 Rocket 4.0 01:26:46 10° NNW 01:31:51 61° WSW 01:36:54 10° S
ADEOS II 2.4 01:26:58 10° NNE 01:32:14 65° ESE 01:37:27 10° S
SL-16 R/B 2.7 01:26:41 10° S 01:32:52 62° WSW 01:39:08 10° NNW
Cosmos 2151 3.2 01:31:23 13° SSW 01:35:06 63° WNW 01:39:24 10° N
Gbstr 26 Del rocket 4.2 01:33:01 13° SSW 01:37:08 41° SE 01:42:46 10° ENE
USA 290 2.2 01:34:09 10° NNW 01:37:24 90° NW 01:40:38 10° SSE
Cosmos 2237 Rocket 3.3 01:32:08 10° NNW 01:37:40 48° NE 01:43:07 10° SE
Cosmos 468 Rocket 4.3 01:35:09 11° SSW 01:40:15 69° ESE 01:45:33 10° NNE
SL-16 R/B 4.0 01:38:00 10° WNW 01:40:51 14° W 01:43:42 10° SW
Cosmos 2322 3.8 01:36:05 10° NW 01:41:42 61° WSW 01:47:15 10° SSE
Meteor 2-6 Rocket 4.4 01:40:24 10° NNW 01:46:24 81° W 01:52:17 10° S
Cosmos 2297 Rocket 4.2 01:44:27 10° SSE 01:48:39 22° ESE 01:52:53 10° NE
USA 276 3.1 01:49:09 10° W 01:51:38 24° SSW 01:54:08 10° SSE
Cosmos 1340 2.7 01:48:02 10° NNW 01:51:47 84° ENE 01:55:29 10° SSE
Cosmos 1898 Rocket 3.5 01:47:15 10° NNW 01:52:23 61° WSW 01:57:28 10° S
Meteor 1-28 Rocket 3.4 01:53:02 10° S 01:56:36 49° W 02:00:13 10° NNW
Cosmos 1862 3.3 01:54:15 10° SSW 01:58:10 77° WNW 02:02:07 10° N
Cosmos 2219 Rocket 2.6 01:55:17 10° NW 02:00:36 42° WSW 02:05:54 10° S
Cosmos 1782 4.3 01:58:51 10° NW 02:01:56 22° W 02:04:59 10° SW
Cosmos 44 3.2 02:04:21 10° SW 02:08:59 82° NW 02:13:28 10° NE
MSX 3.9 02:05:13 10° NNE 02:11:03 87° ESE 02:16:50 10° SSW
Cosmos 1937 Rocket 3.6 02:06:29 10° NNW 02:11:41 58° WSW 02:16:47 10° S
IDEFIX/ARIANE 42P 2.7 02:06:37 10° NNE 02:11:51 73° WNW 02:17:02 10° SSW
Cosmos 220 Rocket 4.2 02:08:01 10° NNW 02:12:27 83° ENE 02:16:52 10° SSE
CZ-2D R/B 2.9 02:07:46 10° N 02:12:36 40° WNW 02:17:26 10° SW
SL-27 R/B 3.3 02:09:38 10° SW 02:12:45 36° WNW 02:15:50 10° N
EO 1 Del DPAF 3.0 02:09:47 10° NNE 02:13:17 90° WNW 02:16:45 10° SSW
Cosmos 2333 Rocket 3.3 02:12:52 10° NW 02:17:29 25° WSW 02:22:06 10° SSW
ALOS 3.9 02:13:21 10° NNE 02:17:31 31° E 02:21:40 10° SSE
Cosmos 1356 Rocket 3.7 02:16:13 10° S 02:20:09 64° E 02:24:07 10° NNE
Cosmos 540 Rocket 3.5 02:15:44 10° SSW 02:20:52 83° WNW 02:26:03 10° NNE
